Content
SEND FEEDBACK

Daily
Averages
Monthly
Summary
United States of America

AGAT, GUAM


Home > North America > United States > Guam
Elevation: 364 feet     Latitude: 13 33N     Longitude: 144 50E

WEATHER
 
SELECT A DAY
Number of Records: 213,760;   Date Range: 1/1/95 - 10/19/14
 
SHARE

PRINT THIS DATA

[ ← Previous Day ]
WEATHER ALMANAC - SEPTEMBER 2, 2014
[ Next Day → ]
[ °C ]   °F
Weather ElementAverageHighLow
Temperature82.7 °F90 °F (11:54 am)78.1 °F (7:54 pm)
Dewpoint76 °F78.1 °F (12:54 pm)75 °F (9:54 am)
Humidity80.7 %93 % (7:54 pm)63 % (10:54 am)
Barometer29.79 in29.87 in (9:01 pm)29.74 in (2:54 pm)
Wind Speed5.6 mph13.8 mph (12:54 pm)
Weather ElementAverage
Visibility9.8 mi
Wind DirectionSSE (145.8 °)

Weather ElementTotal
Precipitation0.16 in
Cooling Degree Days19.1 (Base 65)
Growing Degree Days34.1 (Base 50)
Averaged from 33 records on September 2, 2014
WEATHER CONDITIONS BREAKOUT
WIND DIRECTION BREAKOUT
WEATHER BY HOUR - SEPTEMBER 2, 2014
[ °C ]   °F
Local TimeTemperatureDewpointHumidityBarometerVisibilityWind DirectionWind SpeedGust SpeedPrecipitationEventsConditions
1:54 AM80.1 °F77.0 °F90 %29.76 in10.0 miCalm0.00 inClear
2:54 AM80.1 °F77.0 °F90 %29.75 in10.0 miCalmClear
3:54 AM79.0 °F75.9 °F90 %29.75 in10.0 miCalmClear
4:54 AM79.0 °F75.9 °F90 %29.76 in10.0 miCalmClear
5:54 AM79.0 °F75.9 °F90 %29.77 in10.0 miCalmClear
6:54 AM80.1 °F75.9 °F87 %29.78 in10.0 miCalmClear
7:54 AM84.0 °F77.0 °F79 %29.79 in10.0 miCalmClear
8:54 AM86.0 °F75.9 °F72 %29.79 in10.0 miSSW (210°)5.8 mphScattered Clouds
9:18 AM86.0 °F75.2 °F70 %29.82 in10.0 miWest (270°)6.9 mphMostly Cloudy
9:27 AM86.0 °F75.2 °F70 %29.82 in10.0 miWSW (250°)8.1 mphMostly Cloudy
9:54 AM86.0 °F75.0 °F70 %29.79 in10.0 miWSW (250°)8.1 mphPartly Cloudy
10:54 AM89.1 °F75.0 °F63 %29.78 in10.0 miVariable3.5 mphScattered Clouds
11:54 AM90.0 °F75.9 °F63 %29.78 in10.0 miWSW (240°)9.2 mphMostly Cloudy
12:54 PM89.1 °F78.1 °F70 %29.76 in10.0 miWest (280°)13.8 mphMostly Cloudy
1:04 PM87.8 °F75.2 °F66 %29.78 in10.0 miWest (270°)13.8 mphMostly Cloudy
1:15 PM87.8 °F75.2 °F66 %29.78 in10.0 miWSW (250°)11.5 mphMostly Cloudy
1:54 PM87.1 °F76.6 °F71 %29.75 in10.0 miWSW (250°)11.5 mphThunderstormThunderstorm
2:18 PM86.0 °F77.0 °F74 %29.77 in10.0 miWest (270°)13.8 mphScattered Clouds
2:54 PM82.2 °F78.1 °F87 %29.74 in3.0 miSW (230°)6.9 mph0.02 inRainHeavy Rain
3:54 PM84.0 °F77.0 °F79 %29.74 in10.0 miWest (270°)9.2 mph0.05 inScattered Clouds
4:54 PM82.9 °F75.9 °F79 %29.75 in10.0 miWest (280°)6.9 mphMostly Cloudy
5:54 PM84.0 °F75.9 °F76 %29.76 in10.0 miCalmMostly Cloudy
6:46 PM84.2 °F75.2 °F74 %29.82 in10.0 miSouth (180°)3.5 mphOvercast
6:54 PM82.9 °F77.0 °F82 %29.80 in10.0 miCalmOvercast
7:35 PM78.8 °F75.2 °F89 %29.84 in10.0 miSouth (170°)9.2 mph0.07 inOvercast
7:52 PM78.8 °F75.2 °F89 %29.84 in10.0 miSSW (200°)9.2 mphOvercast
7:54 PM78.1 °F75.9 °F93 %29.82 in10.0 miSSW (200°)8.1 mphRainLight Rain
7:56 PM78.8 °F75.2 °F89 %29.84 in10.0 miSouth (190°)6.9 mph0.00 inRain-ThunderstormLight Thunderstorms and Rain
8:54 PM78.1 °F75.0 °F90 %29.84 in10.0 miCalm0.01 inOvercast
9:01 PM78.8 °F75.2 °F89 %29.87 in10.0 miSE (140°)3.5 mphPartly Cloudy
9:54 PM78.1 °F75.0 °F90 %29.86 in10.0 miESE (110°)6.9 mphRainLight Rain
10:54 PM78.1 °F75.9 °F93 %29.84 in10.0 miSSE (150°)4.6 mph0.01 inMostly Cloudy
11:54 PM78.1 °F75.9 °F93 %29.82 in10.0 miSSE (150°)3.5 mph0.00 inRainLight Rain
Hourly data recorded from PGUM, located miles away from Agat, Guam







STORIES FROM OUR PARTNERS